owner,sensor,date,latitude,longitude,vertical_datum,wind_speed,wind_to_direction,wind_speed_of_gust,qcFlag 
COMPS,ioos:station:USF.COMPS:C10:1,2016-02-01T00:05:00Z,27.1690,-82.9260,3.0,5.208,130.327,5.94,'1111122,1111122,1111122' 
COMPS,ioos:station:USF.COMPS:C10:1,2016-02-01T00:35:00Z,27.1690,-82.9260,3.0,5.061,135.922,6.403,'1111122,1111122,1111122' 
COMPS,ioos:station:USF.COMPS:C10:1,2016-02-01T01:05:00Z,27.1690,-82.9260,3.0,4.792,145.481,5.67,'1111122,1111122,1111122' 
COMPS,ioos:station:USF.COMPS:C10:1,2016-02-01T01:35:00Z,27.1690,-82.9260,3.0,4.222,144.866,5.06,'1111122,1111122,1111122' 
COMPS,ioos:station:USF.COMPS:C10:1,2016-02-01T05:05:00Z,27.1690,-82.9260,3.0,4.69,131.442,5.7,'1111122,1111122,1111122' 
COMPS,ioos:station:USF.COMPS:C10:1,2016-02-01T05:35:00Z,27.1690,-82.9260,3.0,4.716,133.474,6.073,'1111122,1111122,1111122' 
COMPS,ioos:station:USF.COMPS:C10:1,2016-02-01T06:05:00Z,27.1690,-82.9260,3.0,3.014,133.614,3.707,'1111122,1111122,1111122' 
COMPS,ioos:station:USF.COMPS:C10:1,2016-02-01T06:35:00Z,27.1690,-82.9260,3.0,3.212,139.057,4.75,'1111122,1111122,1111122' 
COMPS,ioos:station:USF.COMPS:C10:1,2016-02-01T07:05:00Z,27.1690,-82.9260,3.0,6.34,133.725,7.777,'1111122,1111122,1111122' 
COMPS,ioos:station:USF.COMPS:C10:1,2016-02-01T07:35:00Z,27.1690,-82.9260,3.0,5.799,142.337,10.353,'1111122,1111122,1111122' 
COMPS,ioos:station:USF.COMPS:C10:1,2016-02-01T08:05:00Z,27.1690,-82.9260,3.0,2.052,23.092,2.923,'1111122,1111122,1111122' 
COMPS,ioos:station:USF.COMPS:C10:1,2016-02-01T08:35:00Z,27.1690,-82.9260,3.0,2.251,85.713,2.777,'1111122,1111122,1111122' 
COMPS,ioos:station:USF.COMPS:C10:1,2016-02-01T09:05:00Z,27.1690,-82.9260,3.0,2.22,79.345,2.65,'1111122,1111122,1111122' 
COMPS,ioos:station:USF.COMPS:C10:1,2016-02-01T09:35:00Z,27.1690,-82.9260,3.0,2.828,63.145,3.897,'1111122,1111122,1111122' 
COMPS,ioos:station:USF.COMPS:C10:1,2016-02-01T10:05:00Z,27.1690,-82.9260,3.0,3.503,92.569,4.293,'1111122,1111122,1111122' 
COMPS,ioos:station:USF.COMPS:C10:1,2016-02-01T10:35:00Z,27.1690,-82.9260,3.0,4.183,92.699,4.953,'1111122,1111122,1111122' 
COMPS,ioos:station:USF.COMPS:C10:1,2016-02-01T11:05:00Z,27.1690,-82.9260,3.0,3.972,105.791,4.993,'1111122,1111122,1111122' 
COMPS,ioos:station:USF.COMPS:C10:1,2016-02-01T11:35:00Z,27.1690,-82.9260,3.0,3.951,114.005,4.62,'1111122,1111122,1111122' 
COMPS,ioos:station:USF.COMPS:C10:1,2016-02-01T12:05:00Z,27.1690,-82.9260,3.0,3.394,115.324,4.35,'1111122,1111122,1111122' 
COMPS,ioos:station:USF.COMPS:C10:1,2016-02-01T12:35:00Z,27.1690,-82.9260,3.0,3.123,111.885,3.803,'1111122,1111122,1111122' 
COMPS,ioos:station:USF.COMPS:C10:1,2016-02-01T13:05:00Z,27.1690,-82.9260,3.0,3.831,124.318,4.707,'1111122,1111122,1111122' 
COMPS,ioos:station:USF.COMPS:C10:1,2016-02-01T13:35:00Z,27.1690,-82.9260,3.0,4.331,131.622,5.117,'1111122,1111122,1111122' 
COMPS,ioos:station:USF.COMPS:C10:1,2016-02-01T14:05:00Z,27.1690,-82.9260,3.0,4.667,118.033,5.643,'1111122,1111122,1111122' 
COMPS,ioos:station:USF.COMPS:C10:1,2016-02-01T14:35:00Z,27.1690,-82.9260,3.0,4.177,119.246,5.21,'1111122,1111122,1111122' 
COMPS,ioos:station:USF.COMPS:C10:1,2016-02-01T15:05:00Z,27.1690,-82.9260,3.0,4.014,126.563,4.747,'1111122,1111122,1111122' 
COMPS,ioos:station:USF.COMPS:C10:1,2016-02-01T15:35:00Z,27.1690,-82.9260,3.0,4.038,121.615,4.883,'1111122,1111122,1111122' 
COMPS,ioos:station:USF.COMPS:C10:1,2016-02-01T16:05:00Z,27.1690,-82.9260,3.0,3.577,137.185,4.23,'1111122,1111122,1111122' 
COMPS,ioos:station:USF.COMPS:C10:1,2016-02-01T16:35:00Z,27.1690,-82.9260,3.0,3.87,144.362,4.807,'1111122,1111122,1111122' 
COMPS,ioos:station:USF.COMPS:C10:1,2016-02-01T17:05:00Z,27.1690,-82.9260,3.0,3.381,151.899,4.213,'1111122,1111122,1111122' 
COMPS,ioos:station:USF.COMPS:C10:1,2016-02-01T17:35:00Z,27.1690,-82.9260,3.0,3.39,152.235,4.023,'1111122,1111122,1111122' 
COMPS,ioos:station:USF.COMPS:C10:1,2016-02-01T18:05:00Z,27.1690,-82.9260,3.0,3.446,139.827,4.02,'1111122,1111122,1111122' 
COMPS,ioos:station:USF.COMPS:C10:1,2016-02-01T18:35:00Z,27.1690,-82.9260,3.0,3.03,143.262,3.507,'1111122,1111122,1111122' 
COMPS,ioos:station:USF.COMPS:C10:1,2016-02-01T19:05:00Z,27.1690,-82.9260,3.0,2.37,151.383,2.923,'1111122,1111122,1111122' 
COMPS,ioos:station:USF.COMPS:C10:1,2016-02-01T19:35:00Z,27.1690,-82.9260,3.0,2.051,146.203,2.433,'1111122,1111122,1111122' 
COMPS,ioos:station:USF.COMPS:C10:1,2016-02-01T20:05:00Z,27.1690,-82.9260,3.0,2.293,151.02,2.753,'1111122,1111122,1111122' 
COMPS,ioos:station:USF.COMPS:C10:1,2016-02-01T20:35:00Z,27.1690,-82.9260,3.0,2.501,146.757,2.967,'1111122,1111122,1111122' 
COMPS,ioos:station:USF.COMPS:C10:1,2016-02-01T21:05:00Z,27.1690,-82.9260,3.0,2.502,144.396,2.987,'1111122,1111122,1111122' 
COMPS,ioos:station:USF.COMPS:C10:1,2016-02-01T21:35:00Z,27.1690,-82.9260,3.0,2.289,150.773,2.81,'1111122,1111122,1111122' 
COMPS,ioos:station:USF.COMPS:C10:1,2016-02-01T22:05:00Z,27.1690,-82.9260,3.0,2.158,135.466,2.703,'1111122,1111122,1111122' 
COMPS,ioos:station:USF.COMPS:C10:1,2016-02-01T22:35:00Z,27.1690,-82.9260,3.0,1.489,122.595,1.85,'1111122,1111122,1111122' 
COMPS,ioos:station:USF.COMPS:C10:1,2016-02-01T23:05:00Z,27.1690,-82.9260,3.0,1.325,132.284,1.55,'1111122,1111122,1111122' 
COMPS,ioos:station:USF.COMPS:C10:1,2016-02-01T23:35:00Z,27.1690,-82.9260,3.0,1.218,132.854,1.48,'1111122,1111122,1111122' 
COMPS,ioos:station:USF.COMPS:C10:1,2016-02-02T00:05:00Z,27.1690,-82.9260,3.0,1.46,136.606,1.697,'1111122,1111122,1111122' 
COMPS,ioos:station:USF.COMPS:C10:1,2016-02-02T00:35:00Z,27.1690,-82.9260,3.0,1.133,98.477,1.41,'1111122,1111122,1111122' 
COMPS,ioos:station:USF.COMPS:C10:1,2016-02-02T01:05:00Z,27.1690,-82.9260,3.0,0.704,113.589,1.17,'1111122,1111122,1111122' 
COMPS,ioos:station:USF.COMPS:C10:1,2016-02-02T01:35:00Z,27.1690,-82.9260,3.0,0.465,73.49,0.843,'1111122,1111122,1111122' 
COMPS,ioos:station:USF.COMPS:C10:1,2016-02-02T02:05:00Z,27.1690,-82.9260,3.0,0.518,129.147,0.833,'1111122,1111122,1111122' 
COMPS,ioos:station:USF.COMPS:C10:1,2016-02-02T02:35:00Z,27.1690,-82.9260,3.0,0.615,108.4,0.973,'1111122,1111122,1111122' 
COMPS,ioos:station:USF.COMPS:C10:1,2016-02-02T05:05:00Z,27.1690,-82.9260,3.0,0.78,103.781,1.303,'1111122,1111122,1111122' 
COMPS,ioos:station:USF.COMPS:C10:1,2016-02-02T05:35:00Z,27.1690,-82.9260,3.0,1.295,126.235,1.817,'1111122,1111122,1111122' 
COMPS,ioos:station:USF.COMPS:C10:1,2016-02-02T06:05:00Z,27.1690,-82.9260,3.0,1.161,106.072,1.723,'1111122,1111122,1111122' 
COMPS,ioos:station:USF.COMPS:C10:1,2016-02-02T06:35:00Z,27.1690,-82.9260,3.0,1.436,91.746,1.95,'1111122,1111122,1111122' 
COMPS,ioos:station:USF.COMPS:C10:1,2016-02-02T07:05:00Z,27.1690,-82.9260,3.0,2.144,75.095,2.737,'1111122,1111122,1111122' 
COMPS,ioos:station:USF.COMPS:C10:1,2016-02-02T07:35:00Z,27.1690,-82.9260,3.0,2.714,95.01,3.74,'1111122,1111122,1111122' 
COMPS,ioos:station:USF.COMPS:C10:1,2016-02-02T08:05:00Z,27.1690,-82.9260,3.0,3.882,101.464,4.847,'1111122,1111122,1111122' 
COMPS,ioos:station:USF.COMPS:C10:1,2016-02-02T08:35:00Z,27.1690,-82.9260,3.0,3.701,106.484,4.473,'1111122,1111122,1111122' 
COMPS,ioos:station:USF.COMPS:C10:1,2016-02-02T09:05:00Z,27.1690,-82.9260,3.0,3.551,106.094,4.35,'1111122,1111122,1111122' 
COMPS,ioos:station:USF.COMPS:C10:1,2016-02-02T09:35:00Z,27.1690,-82.9260,3.0,3.844,112.954,4.743,'1111122,1111122,1111122' 
COMPS,ioos:station:USF.COMPS:C10:1,2016-02-02T10:05:00Z,27.1690,-82.9260,3.0,3.358,112.358,3.873,'1111122,1111122,1111122' 
COMPS,ioos:station:USF.COMPS:C10:1,2016-02-02T10:35:00Z,27.1690,-82.9260,3.0,3.857,119.14,4.623,'1111122,1111122,1111122' 
COMPS,ioos:station:USF.COMPS:C10:1,2016-02-02T11:05:00Z,27.1690,-82.9260,3.0,4.147,119.877,4.983,'1111122,1111122,1111122' 
COMPS,ioos:station:USF.COMPS:C10:1,2016-02-02T11:35:00Z,27.1690,-82.9260,3.0,3.959,111.707,4.67,'1111122,1111122,1111122' 
COMPS,ioos:station:USF.COMPS:C10:1,2016-02-02T12:05:00Z,27.1690,-82.9260,3.0,4.195,108.481,4.947,'1111122,1111122,1111122' 
COMPS,ioos:station:USF.COMPS:C10:1,2016-02-02T12:35:00Z,27.1690,-82.9260,3.0,4.815,116.027,5.74,'1111122,1111122,1111122' 
COMPS,ioos:station:USF.COMPS:C10:1,2016-02-02T13:05:00Z,27.1690,-82.9260,3.0,4.785,113.582,5.87,'1111122,1111122,1111122' 
COMPS,ioos:station:USF.COMPS:C10:1,2016-02-02T13:35:00Z,27.1690,-82.9260,3.0,4.475,113.886,5.32,'1111122,1111122,1111122' 
COMPS,ioos:station:USF.COMPS:C10:1,2016-02-02T14:05:00Z,27.1690,-82.9260,3.0,4.403,120.762,5.243,'1111122,1111122,1111122' 
COMPS,ioos:station:USF.COMPS:C10:1,2016-02-02T14:35:00Z,27.1690,-82.9260,3.0,4.28,120.383,5.18,'1111122,1111122,1111122' 
COMPS,ioos:station:USF.COMPS:C10:1,2016-02-02T15:05:00Z,27.1690,-82.9260,3.0,5.185,127.036,6.427,'1111122,1111122,1111122' 
COMPS,ioos:station:USF.COMPS:C10:1,2016-02-02T15:35:00Z,27.1690,-82.9260,3.0,4.606,122.921,5.78,'1111122,1111122,1111122' 
COMPS,ioos:station:USF.COMPS:C10:1,2016-02-02T16:05:00Z,27.1690,-82.9260,3.0,5.954,136.045,7.517,'1111122,1111122,1111122' 
COMPS,ioos:station:USF.COMPS:C10:1,2016-02-02T16:35:00Z,27.1690,-82.9260,3.0,4.0,122.959,5.14,'1111122,1111122,1111122' 
COMPS,ioos:station:USF.COMPS:C10:1,2016-02-02T17:05:00Z,27.1690,-82.9260,3.0,3.331,117.18,4.157,'1111122,1111122,1111122' 
COMPS,ioos:station:USF.COMPS:C10:1,2016-02-02T17:35:00Z,27.1690,-82.9260,3.0,3.562,133.39,4.313,'1111122,1111122,1111122' 
COMPS,ioos:station:USF.COMPS:C10:1,2016-02-02T18:05:00Z,27.1690,-82.9260,3.0,3.367,133.207,4.137,'1111122,1111122,1111122' 
COMPS,ioos:station:USF.COMPS:C10:1,2016-02-02T18:35:00Z,27.1690,-82.9260,3.0,4.837,144.042,5.99,'1111122,1111122,1111122' 
COMPS,ioos:station:USF.COMPS:C10:1,2016-02-02T19:05:00Z,27.1690,-82.9260,3.0,3.503,134.732,4.237,'1111122,1111122,1111122' 
COMPS,ioos:station:USF.COMPS:C10:1,2016-02-02T19:35:00Z,27.1690,-82.9260,3.0,3.548,146.407,4.467,'1111122,1111122,1111122' 
COMPS,ioos:station:USF.COMPS:C10:1,2016-02-03T02:05:00Z,27.1690,-82.9260,3.0,3.706,141.26,4.35,'1111122,1111122,1111122' 
COMPS,ioos:station:USF.COMPS:C10:1,2016-02-03T02:35:00Z,27.1690,-82.9260,3.0,4.123,139.932,4.77,'1111122,1111122,1111122' 
COMPS,ioos:station:USF.COMPS:C10:1,2016-02-03T05:05:00Z,27.1690,-82.9260,3.0,5.507,133.526,6.5,'1111122,1111122,1111122' 
COMPS,ioos:station:USF.COMPS:C10:1,2016-02-03T05:35:00Z,27.1690,-82.9260,3.0,5.574,128.585,6.553,'1111122,1111122,1111122' 
COMPS,ioos:station:USF.COMPS:C10:1,2016-02-03T06:05:00Z,27.1690,-82.9260,3.0,5.978,126.021,7.597,'1111122,1111122,1111122' 
COMPS,ioos:station:USF.COMPS:C10:1,2016-02-03T06:35:00Z,27.1690,-82.9260,3.0,5.974,127.796,7.34,'1111122,1111122,1111122' 
COMPS,ioos:station:USF.COMPS:C10:1,2016-02-03T07:05:00Z,27.1690,-82.9260,3.0,6.855,130.332,8.153,'1111122,1111122,1111122' 
COMPS,ioos:station:USF.COMPS:C10:1,2016-02-03T07:35:00Z,27.1690,-82.9260,3.0,6.985,133.412,8.443,'1111122,1111122,1111122' 
COMPS,ioos:station:USF.COMPS:C10:1,2016-02-03T08:05:00Z,27.1690,-82.9260,3.0,7.288,134.177,8.69,'1111122,1111122,1111122' 
COMPS,ioos:station:USF.COMPS:C10:1,2016-02-03T08:35:00Z,27.1690,-82.9260,3.0,6.4,136.154,7.69,'1111122,1111122,1111122' 
COMPS,ioos:station:USF.COMPS:C10:1,2016-02-03T09:05:00Z,27.1690,-82.9260,3.0,5.968,136.566,6.983,'1111122,1111122,1111122' 
COMPS,ioos:station:USF.COMPS:C10:1,2016-02-03T09:35:00Z,27.1690,-82.9260,3.0,5.402,137.183,6.35,'1111122,1111122,1111122' 
COMPS,ioos:station:USF.COMPS:C10:1,2016-02-03T10:05:00Z,27.1690,-82.9260,3.0,4.711,144.252,5.48,'1111122,1111122,1111122' 
COMPS,ioos:station:USF.COMPS:C10:1,2016-02-03T10:35:00Z,27.1690,-82.9260,3.0,5.025,144.497,6.38,'1111122,1111122,1111122' 
COMPS,ioos:station:USF.COMPS:C10:1,2016-02-03T11:05:00Z,27.1690,-82.9260,3.0,5.547,143.754,6.583,'1111122,1111122,1111122' 
COMPS,ioos:station:USF.COMPS:C10:1,2016-02-03T11:35:00Z,27.1690,-82.9260,3.0,5.831,147.413,7.207,'1111122,1111122,1111122' 
COMPS,ioos:station:USF.COMPS:C10:1,2016-02-03T12:05:00Z,27.1690,-82.9260,3.0,6.04,147.445,7.28,'1111122,1111122,1111122' 
COMPS,ioos:station:USF.COMPS:C10:1,2016-02-03T12:35:00Z,27.1690,-82.9260,3.0,6.796,149.568,7.993,'1111122,1111122,1111122' 
COMPS,ioos:station:USF.COMPS:C10:1,2016-02-03T13:05:00Z,27.1690,-82.9260,3.0,7.168,146.606,8.483,'1111122,1111122,1111122' 
COMPS,ioos:station:USF.COMPS:C10:1,2016-02-03T13:35:00Z,27.1690,-82.9260,3.0,7.046,146.474,8.55,'1111122,1111122,1111122' 
COMPS,ioos:station:USF.COMPS:C10:1,2016-02-03T14:05:00Z,27.1690,-82.9260,3.0,7.65,142.383,9.207,'1111122,1111122,1111122' 
COMPS,ioos:station:USF.COMPS:C10:1,2016-02-03T14:35:00Z,27.1690,-82.9260,3.0,7.222,141.348,8.733,'1111122,1111122,1111122' 
COMPS,ioos:station:USF.COMPS:C10:1,2016-02-03T15:05:00Z,27.1690,-82.9260,3.0,7.175,143.854,8.73,'1111122,1111122,1111122' 
COMPS,ioos:station:USF.COMPS:C10:1,2016-02-03T15:35:00Z,27.1690,-82.9260,3.0,7.732,143.229,9.467,'1111122,1111122,1111122' 
COMPS,ioos:station:USF.COMPS:C10:1,2016-02-03T16:05:00Z,27.1690,-82.9260,3.0,7.933,145.561,9.36,'1111122,1111122,1111122' 
COMPS,ioos:station:USF.COMPS:C10:1,2016-02-03T16:35:00Z,27.1690,-82.9260,3.0,8.029,146.056,9.537,'1111122,1111122,1111122' 
COMPS,ioos:station:USF.COMPS:C10:1,2016-02-03T17:05:00Z,27.1690,-82.9260,3.0,7.64,151.408,8.787,'1111122,1111122,1111122' 
COMPS,ioos:station:USF.COMPS:C10:1,2016-02-03T17:35:00Z,27.1690,-82.9260,3.0,7.987,151.957,9.963,'1111122,1111122,1111122' 
COMPS,ioos:station:USF.COMPS:C10:1,2016-02-03T18:05:00Z,27.1690,-82.9260,3.0,7.952,155.71,9.337,'1111122,1111122,1111122' 
COMPS,ioos:station:USF.COMPS:C10:1,2016-02-03T18:35:00Z,27.1690,-82.9260,3.0,7.567,155.968,9.21,'1111122,1111122,1111122' 
COMPS,ioos:station:USF.COMPS:C10:1,2016-02-03T19:05:00Z,27.1690,-82.9260,3.0,7.253,157.552,8.89,'1111122,1111122,1111122' 
COMPS,ioos:station:USF.COMPS:C10:1,2016-02-03T19:35:00Z,27.1690,-82.9260,3.0,7.015,157.77,8.587,'1111122,1111122,1111122' 
COMPS,ioos:station:USF.COMPS:C10:1,2016-02-03T20:05:00Z,27.1690,-82.9260,3.0,6.692,164.107,8.577,'1111122,1111122,1111122' 
COMPS,ioos:station:USF.COMPS:C10:1,2016-02-03T20:35:00Z,27.1690,-82.9260,3.0,6.495,161.37,8.21,'1111122,1111122,1111122' 
COMPS,ioos:station:USF.COMPS:C10:1,2016-02-03T21:05:00Z,27.1690,-82.9260,3.0,6.384,164.056,7.82,'1111122,1111122,1111122' 
COMPS,ioos:station:USF.COMPS:C10:1,2016-02-03T21:35:00Z,27.1690,-82.9260,3.0,6.303,169.665,7.633,'1111122,1111122,1111122' 
COMPS,ioos:station:USF.COMPS:C10:1,2016-02-03T22:05:00Z,27.1690,-82.9260,3.0,6.395,171.301,8.08,'1111122,1111122,1111122' 
COMPS,ioos:station:USF.COMPS:C10:1,2016-02-03T22:35:00Z,27.1690,-82.9260,3.0,6.698,169.82,7.97,'1111122,1111122,1111122' 
COMPS,ioos:station:USF.COMPS:C10:1,2016-02-03T23:05:00Z,27.1690,-82.9260,3.0,6.633,172.123,8.007,'1111122,1111122,1111122' 
COMPS,ioos:station:USF.COMPS:C10:1,2016-02-03T23:35:00Z,27.1690,-82.9260,3.0,6.355,167.231,8.03,'1111122,1111122,1111122' 
COMPS,ioos:station:USF.COMPS:C10:1,2016-02-04T00:05:00Z,27.1690,-82.9260,3.0,6.118,170.02,7.47,'1111122,1111122,1111122' 
COMPS,ioos:station:USF.COMPS:C10:1,2016-02-04T00:35:00Z,27.1690,-82.9260,3.0,6.486,165.703,7.713,'1111122,1111122,1111122' 
COMPS,ioos:station:USF.COMPS:C10:1,2016-02-04T01:05:00Z,27.1690,-82.9260,3.0,6.43,164.008,7.653,'1111122,1111122,1111122' 
COMPS,ioos:station:USF.COMPS:C10:1,2016-02-04T01:35:00Z,27.1690,-82.9260,3.0,7.108,163.394,8.323,'1111122,1111122,1111122' 
COMPS,ioos:station:USF.COMPS:C10:1,2016-02-04T05:05:00Z,27.1690,-82.9260,3.0,5.688,164.339,6.693,'1111122,1111122,1111122' 
COMPS,ioos:station:USF.COMPS:C10:1,2016-02-04T05:35:00Z,27.1690,-82.9260,3.0,7.079,160.729,8.22,'1111122,1111122,1111122' 
COMPS,ioos:station:USF.COMPS:C10:1,2016-02-04T06:05:00Z,27.1690,-82.9260,3.0,7.552,158.441,8.93,'1111122,1111122,1111122' 
COMPS,ioos:station:USF.COMPS:C10:1,2016-02-04T06:35:00Z,27.1690,-82.9260,3.0,7.317,155.047,9.03,'1111122,1111122,1111122' 
COMPS,ioos:station:USF.COMPS:C10:1,2016-02-04T07:05:00Z,27.1690,-82.9260,3.0,7.286,158.911,8.8,'1111122,1111122,1111122' 
COMPS,ioos:station:USF.COMPS:C10:1,2016-02-04T07:35:00Z,27.1690,-82.9260,3.0,7.36,151.212,9.24,'1111122,1111122,1111122' 
COMPS,ioos:station:USF.COMPS:C10:1,2016-02-04T08:05:00Z,27.1690,-82.9260,3.0,7.036,151.863,8.517,'1111122,1111122,1111122' 
COMPS,ioos:station:USF.COMPS:C10:1,2016-02-04T08:35:00Z,27.1690,-82.9260,3.0,7.265,150.96,9.58,'1111122,1111122,1111122' 
COMPS,ioos:station:USF.COMPS:C10:1,2016-02-04T09:05:00Z,27.1690,-82.9260,3.0,7.33,153.954,8.77,'1111122,1111122,1111122' 
COMPS,ioos:station:USF.COMPS:C10:1,2016-02-04T09:35:00Z,27.1690,-82.9260,3.0,7.377,154.425,9.07,'1111122,1111122,1111122' 
COMPS,ioos:station:USF.COMPS:C10:1,2016-02-04T10:05:00Z,27.1690,-82.9260,3.0,7.443,153.463,8.943,'1111122,1111122,1111122' 
COMPS,ioos:station:USF.COMPS:C10:1,2016-02-04T10:35:00Z,27.1690,-82.9260,3.0,7.531,148.15,8.893,'1111122,1111122,1111122' 
COMPS,ioos:station:USF.COMPS:C10:1,2016-02-04T11:05:00Z,27.1690,-82.9260,3.0,8.66,149.89,10.633,'1111122,1111122,1111122' 
COMPS,ioos:station:USF.COMPS:C10:1,2016-02-04T11:35:00Z,27.1690,-82.9260,3.0,8.073,148.902,9.81,'1111122,1111122,1111122' 
COMPS,ioos:station:USF.COMPS:C10:1,2016-02-04T12:05:00Z,27.1690,-82.9260,3.0,8.301,155.727,10.05,'1111122,1111122,1111122' 
COMPS,ioos:station:USF.COMPS:C10:1,2016-02-04T12:35:00Z,27.1690,-82.9260,3.0,8.52,155.924,10.397,'1111122,1111122,1111122' 
COMPS,ioos:station:USF.COMPS:C10:1,2016-02-04T13:05:00Z,27.1690,-82.9260,3.0,9.154,158.307,10.967,'1111122,1111122,1111122' 
COMPS,ioos:station:USF.COMPS:C10:1,2016-02-04T13:35:00Z,27.1690,-82.9260,3.0,8.065,159.36,9.82,'1111122,1111122,1111122' 
COMPS,ioos:station:USF.COMPS:C10:1,2016-02-04T14:05:00Z,27.1690,-82.9260,3.0,6.854,161.611,8.3,'1111122,1111122,1111122' 
COMPS,ioos:station:USF.COMPS:C10:1,2016-02-04T14:35:00Z,27.1690,-82.9260,3.0,7.252,159.077,8.367,'1111122,1111122,1111122' 
COMPS,ioos:station:USF.COMPS:C10:1,2016-02-04T15:05:00Z,27.1690,-82.9260,3.0,7.227,166.598,8.523,'1111122,1111122,1111122' 
COMPS,ioos:station:USF.COMPS:C10:1,2016-02-04T15:35:00Z,27.1690,-82.9260,3.0,7.27,164.111,8.623,'1111122,1111122,1111122' 
COMPS,ioos:station:USF.COMPS:C10:1,2016-02-04T16:05:00Z,27.1690,-82.9260,3.0,7.553,169.683,9.147,'1111122,1111122,1111122' 
COMPS,ioos:station:USF.COMPS:C10:1,2016-02-04T16:35:00Z,27.1690,-82.9260,3.0,7.386,172.643,8.847,'1111122,1111122,1111122' 
COMPS,ioos:station:USF.COMPS:C10:1,2016-02-04T17:05:00Z,27.1690,-82.9260,3.0,7.632,173.143,8.97,'1111122,1111122,1111122' 
COMPS,ioos:station:USF.COMPS:C10:1,2016-02-04T17:35:00Z,27.1690,-82.9260,3.0,7.232,172.569,8.69,'1111122,1111122,1111122' 
COMPS,ioos:station:USF.COMPS:C10:1,2016-02-04T18:05:00Z,27.1690,-82.9260,3.0,7.157,176.468,8.533,'1111122,1111122,1111122' 
COMPS,ioos:station:USF.COMPS:C10:1,2016-02-04T18:35:00Z,27.1690,-82.9260,3.0,6.383,175.366,7.783,'1111122,1111122,1111122' 
COMPS,ioos:station:USF.COMPS:C10:1,2016-02-04T19:05:00Z,27.1690,-82.9260,3.0,6.457,179.169,7.847,'1111122,1111122,1111122' 
COMPS,ioos:station:USF.COMPS:C10:1,2016-02-04T19:35:00Z,27.1690,-82.9260,3.0,5.072,193.161,6.337,'1111122,1111122,1111122' 
COMPS,ioos:station:USF.COMPS:C10:1,2016-02-04T20:05:00Z,27.1690,-82.9260,3.0,4.526,214.169,5.54,'1111122,1111122,1111122' 
COMPS,ioos:station:USF.COMPS:C10:1,2016-02-04T20:35:00Z,27.1690,-82.9260,3.0,4.049,208.358,5.54,'1111122,1111122,1111122' 
COMPS,ioos:station:USF.COMPS:C10:1,2016-02-04T21:05:00Z,27.1690,-82.9260,3.0,2.774,206.408,3.66,'1111122,1111122,1111122' 
COMPS,ioos:station:USF.COMPS:C10:1,2016-02-04T21:35:00Z,27.1690,-82.9260,3.0,2.688,247.941,3.643,'1111122,1111122,1111122' 
COMPS,ioos:station:USF.COMPS:C10:1,2016-02-04T22:05:00Z,27.1690,-82.9260,3.0,11.598,330.207,14.5,'1111122,1111122,1111122' 
COMPS,ioos:station:USF.COMPS:C10:1,2016-02-04T22:35:00Z,27.1690,-82.9260,3.0,12.515,337.621,15.953,'1111122,1111122,1111122' 
COMPS,ioos:station:USF.COMPS:C10:1,2016-02-04T23:05:00Z,27.1690,-82.9260,3.0,12.566,325.655,16.657,'1111122,1111122,1111122' 
COMPS,ioos:station:USF.COMPS:C10:1,2016-02-04T23:35:00Z,27.1690,-82.9260,3.0,11.631,351.006,14.197,'1111122,1111122,1111122' 
COMPS,ioos:station:USF.COMPS:C10:1,2016-02-05T00:05:00Z,27.1690,-82.9260,3.0,10.658,346.412,13.57,'1111122,1111122,1111122' 
COMPS,ioos:station:USF.COMPS:C10:1,2016-02-05T00:35:00Z,27.1690,-82.9260,3.0,10.212,354.851,12.403,'1111122,1111122,1111122' 
COMPS,ioos:station:USF.COMPS:C10:1,2016-02-05T02:05:00Z,27.1690,-82.9260,3.0,9.438,349.646,11.63,'1111122,1111122,1111122' 
COMPS,ioos:station:USF.COMPS:C10:1,2016-02-05T02:35:00Z,27.1690,-82.9260,3.0,11.456,15.975,14.327,'1111122,1111122,1111122' 
COMPS,ioos:station:USF.COMPS:C10:1,2016-02-05T03:05:00Z,27.1690,-82.9260,3.0,11.327,17.162,14.99,'1111122,1111122,1111122' 
COMPS,ioos:station:USF.COMPS:C10:1,2016-02-05T03:35:00Z,27.1690,-82.9260,3.0,10.713,356.971,15.337,'1111122,1111122,1111122' 
COMPS,ioos:station:USF.COMPS:C10:1,2016-02-05T05:05:00Z,27.1690,-82.9260,3.0,12.609,348.244,15.373,'1111122,1111122,1111122' 
COMPS,ioos:station:USF.COMPS:C10:1,2016-02-05T05:35:00Z,27.1690,-82.9260,3.0,11.654,353.079,14.583,'1111122,1111122,1111122' 
COMPS,ioos:station:USF.COMPS:C10:1,2016-02-05T09:05:00Z,27.1690,-82.9260,3.0,13.593,359.788,17.913,'1111122,1111122,1111122' 
COMPS,ioos:station:USF.COMPS:C10:1,2016-02-05T09:35:00Z,27.1690,-82.9260,3.0,13.617,2.939,16.993,'1111122,1111122,1111122' 
COMPS,ioos:station:USF.COMPS:C10:1,2016-02-05T11:05:00Z,27.1690,-82.9260,3.0,13.593,4.805,16.743,'1111122,1111122,1111122' 
COMPS,ioos:station:USF.COMPS:C10:1,2016-02-05T11:35:00Z,27.1690,-82.9260,3.0,12.865,7.444,16.44,'1111122,1111122,1111122' 
COMPS,ioos:station:USF.COMPS:C10:1,2016-02-05T14:05:00Z,27.1690,-82.9260,3.0,10.981,35.954,15.077,'1111122,1111122,1111122' 
COMPS,ioos:station:USF.COMPS:C10:1,2016-02-05T14:35:00Z,27.1690,-82.9260,3.0,9.988,35.509,12.657,'1111122,1111122,1111122' 
COMPS,ioos:station:USF.COMPS:C10:1,2016-02-05T15:05:00Z,27.1690,-82.9260,3.0,11.221,31.606,14.56,'1111122,1111122,1111122' 
COMPS,ioos:station:USF.COMPS:C10:1,2016-02-05T15:35:00Z,27.1690,-82.9260,3.0,11.473,27.589,13.94,'1111122,1111122,1111122' 
COMPS,ioos:station:USF.COMPS:C10:1,2016-02-05T16:05:00Z,27.1690,-82.9260,3.0,10.912,26.031,13.5,'1111122,1111122,1111122' 
COMPS,ioos:station:USF.COMPS:C10:1,2016-02-05T16:35:00Z,27.1690,-82.9260,3.0,9.354,26.006,11.407,'1111122,1111122,1111122' 
COMPS,ioos:station:USF.COMPS:C10:1,2016-02-05T17:05:00Z,27.1690,-82.9260,3.0,8.043,35.804,10.083,'1111122,1111122,1111122' 
COMPS,ioos:station:USF.COMPS:C10:1,2016-02-05T17:35:00Z,27.1690,-82.9260,3.0,7.256,33.137,10.053,'1111122,1111122,1111122' 
COMPS,ioos:station:USF.COMPS:C10:1,2016-02-05T18:05:00Z,27.1690,-82.9260,3.0,7.044,36.54,9.017,'1111122,1111122,1111122' 
COMPS,ioos:station:USF.COMPS:C10:1,2016-02-05T18:35:00Z,27.1690,-82.9260,3.0,7.916,27.283,10.087,'1111122,1111122,1111122' 
COMPS,ioos:station:USF.COMPS:C10:1,2016-02-05T19:05:00Z,27.1690,-82.9260,3.0,8.002,16.695,10.12,'1111122,1111122,1111122' 
COMPS,ioos:station:USF.COMPS:C10:1,2016-02-05T19:35:00Z,27.1690,-82.9260,3.0,6.769,7.518,9.257,'1111122,1111122,1111122' 
COMPS,ioos:station:USF.COMPS:C10:1,2016-02-05T20:05:00Z,27.1690,-82.9260,3.0,7.234,18.074,9.393,'1111122,1111122,1111122' 
COMPS,ioos:station:USF.COMPS:C10:1,2016-02-05T20:35:00Z,27.1690,-82.9260,3.0,7.476,17.702,9.58,'1111122,1111122,1111122' 
COMPS,ioos:station:USF.COMPS:C10:1,2016-02-05T21:05:00Z,27.1690,-82.9260,3.0,7.739,17.842,10.197,'1111122,1111122,1111122' 
COMPS,ioos:station:USF.COMPS:C10:1,2016-02-05T21:35:00Z,27.1690,-82.9260,3.0,7.868,16.204,10.087,'1111122,1111122,1111122' 
COMPS,ioos:station:USF.COMPS:C10:1,2016-02-05T22:05:00Z,27.1690,-82.9260,3.0,8.009,15.143,10.87,'1111122,1111122,1111122' 
COMPS,ioos:station:USF.COMPS:C10:1,2016-02-05T22:35:00Z,27.1690,-82.9260,3.0,8.499,14.029,10.28,'1111122,1111122,1111122' 
COMPS,ioos:station:USF.COMPS:C10:1,2016-02-05T23:05:00Z,27.1690,-82.9260,3.0,8.779,19.083,11.123,'1111122,1111122,1111122' 
COMPS,ioos:station:USF.COMPS:C10:1,2016-02-05T23:35:00Z,27.1690,-82.9260,3.0,8.587,18.716,11.607,'1111122,1111122,1111122' 
COMPS,ioos:station:USF.COMPS:C10:1,2016-02-06T00:05:00Z,27.1690,-82.9260,3.0,8.738,22.957,10.703,'1111122,1111122,1111122' 